Location: Cieszkowy
(50.3290°N, 20.5336°E)
Time: 00:11:01
(UTC+00:00)

SL-12 R/B(2) - Pass Details

Date: 15 June 2024
Orbit: 1193 x 2155 km, 63.4° (Epoch: 18 July)

Event Time Altitude Azimuth Distance (km) Brightness Sun altitude
Exits shadow 00:09:28 14° 226° (SW) 3,094 5.6 -13.6°
Maximum altitude 00:16:53 84° 314° (NW) 1,525 4.5 -13.2°
Drops below altitude 10° 00:27:02 10° 44° (NE) 4,087 8.0 -12.5°
Sets 00:30:32 0° 46° (NE) 5,213 8.8 -12.3°
